Home   Weather   Brisbane   Past weeks
Flag for Australia

Past Weather in Brisbane, Queensland, Australia — Yesterday and Last 2 Weeks

Now
70 °F

Clear.


Feels Like: 70 °F
Forecast: 82 / 66 °F
Wind: 7 mph from Southwest

Location: Brisbane Airport M. O

Current Time: Apr 5, 2020 at 3:56:58 am

Latest Report: Apr 5, 2020 at 3:00 am


Visibility: 10 mi

Pressure: 29.83 "Hg

Humidity: 94%

Dew Point: 68 °F

Location of BrisbaneLocation

Past Weather in Brisbane — Graph

°F

Brisbane Temperature Yesterday

Maximum temperature yesterday: 86 °F (at 11:30 am)
Minimum temperature yesterday: 73 °F (at 6:30 am)
Average temperature yesterday: 78 °F

High & Low Weather Summary for the Past Weeks

 TemperatureHumidityPressure
High86 °F (Mar 21, 3:00 pm)100% (Mar 29, 2:30 am)30.18 "Hg (Mar 29, 2:30 am)
Low63 °F (Mar 26, 3:30 am)46% (Mar 21, 3:00 pm)29.71 "Hg (Apr 4, 3:00 pm)
Average74 °F77%30.02 "Hg
* Reported Mar 21 3:00 am — Apr 5 3:00 am, Brisbane. Weather by CustomWeather, © 2020

Note: Actual official high and low records may vary slightly from our data, if they occured in-between our weather recording intervals... More about our weather records

Brisbane Weather History for the Previous 24 Hours

Scroll right to see more
 ConditionsComfort  
Time TempWeatherWind HumidityBarometerVisibility
3:00 am
Sun, Apr 5
70 °FClear.7 mph94%29.83 "Hg10 mi
2:30 am70 °FClear.7 mph94%29.83 "Hg10 mi
2:00 am70 °FClear.6 mph100%29.83 "Hg10 mi
1:30 am72 °FClear.7 mph94%29.83 "Hg10 mi
1:00 am73 °FClear.5 mph89%29.83 "Hg10 mi
12:30 am72 °FClear.7 mph94%29.83 "Hg10 mi
12:00 am72 °FClear.6 mph100%29.83 "Hg10 mi
11:30 pm
Sat, Apr 4
73 °FPassing clouds.No wind94%29.83 "HgN/A
11:00 pm73 °FClear.No wind94%29.83 "Hg10 mi
10:30 pm73 °FClear.No wind94%29.83 "Hg10 mi
10:00 pm75 °FClear.No wind89%29.86 "Hg10 mi
9:30 pm73 °FClear.No wind94%29.83 "Hg10 mi
9:00 pm73 °FClear.No wind94%29.83 "Hg10 mi
8:42 pm75 °FPassing clouds.5 mph89%29.83 "HgN/A
8:30 pm75 °FRain showers. Passing clouds.10 mph83%29.83 "Hg2 mi
8:24 pm75 °FRain showers. Passing clouds.7 mph94%29.83 "Hg4 mi
8:00 pm79 °FClear.10 mph84%29.83 "Hg10 mi
7:30 pm77 °FClear.12 mph89%29.80 "Hg10 mi
7:00 pm79 °FPartly cloudy.13 mph84%29.80 "HgN/A
6:30 pm77 °FClear.14 mph89%29.77 "Hg10 mi
6:00 pm79 °FPartly cloudy.12 mph84%29.77 "HgN/A
5:30 pm79 °FScattered showers. Broken clouds.13 mph84%29.77 "HgN/A
5:00 pm79 °FBroken clouds.14 mph84%29.74 "HgN/A
4:30 pm79 °FBroken clouds.15 mph84%29.74 "HgN/A
4:00 pm81 °FPartly sunny.16 mph79%29.74 "HgN/A
3:30 pm81 °FPartly sunny.16 mph79%29.74 "HgN/A
3:00 pm81 °FPartly sunny.16 mph79%29.71 "HgN/A
2:30 pm81 °FPartly sunny.16 mph79%29.74 "HgN/A
2:00 pm81 °FBroken clouds.15 mph79%29.74 "HgN/A
1:30 pm82 °FBroken clouds.16 mph66%29.74 "HgN/A
1:00 pm81 °FBroken clouds.14 mph74%29.74 "HgN/A
12:30 pm82 °FBroken clouds.15 mph66%29.77 "HgN/A
12:00 pm86 °FPartly sunny.13 mph52%29.77 "HgN/A
11:30 am86 °FScattered clouds.12 mph52%29.80 "HgN/A
11:00 am84 °FPartly sunny.13 mph55%29.80 "HgN/A
10:00 am82 °FPassing clouds.13 mph58%29.83 "HgN/A
9:30 am81 °FScattered clouds.10 mph62%29.83 "HgN/A
9:00 am81 °FPassing clouds.8 mph62%29.83 "HgN/A
8:30 am79 °FPassing clouds.6 mph70%29.86 "HgN/A
8:00 am79 °FPassing clouds.9 mph70%29.83 "HgN/A
7:30 am77 °FPassing clouds.10 mph74%29.83 "HgN/A
7:00 am73 °FPassing clouds.9 mph83%29.80 "HgN/A
6:30 am73 °FScattered clouds.9 mph83%29.80 "HgN/A
6:00 am75 °FScattered clouds.12 mph74%29.80 "HgN/A
5:30 am75 °FPassing clouds.16 mph74%29.80 "HgN/A
5:00 am75 °FPassing clouds.17 mph74%29.77 "HgN/A
4:30 am75 °FClear.15 mph74%29.77 "Hg10 mi
4:00 am75 °FClear.15 mph78%29.77 "Hg10 mi
3:30 am75 °FClear.16 mph83%29.77 "Hg10 mi
3:00 am75 °FPassing clouds.18 mph83%29.77 "HgN/A
Weather by CustomWeather, © 2020

See weather overview

Advertising